2023/05/06 00:00:00, 0.0,19.5
2023/05/06 00:10:00,---,19.2
2023/05/06 00:20:00, 0.1,19.1
2023/05/06 00:30:00,---,19.2
2023/05/06 00:40:00, 0.0,19.3
2023/05/06 00:50:00, 0.0,19.5
2023/05/06 01:00:00,---,19.2
2023/05/06 01:10:00,25.8,19.3
2023/05/06 01:20:00,---,19.1
2023/05/06 01:30:00, 0.0,18.9
2023/05/06 01:40:00, 0.0,19.2
2023/05/06 01:50:00,---,19.1
2023/05/06 02:00:00, 0.0,18.9
2023/05/06 02:10:00, 0.0,19.4
2023/05/06 02:20:00, 0.0,19.3
2023/05/06 02:30:00, 0.0,19.2
2023/05/06 02:40:00, 0.4,19.3
2023/05/06 02:50:00, 0.0,19.4
2023/05/06 03:00:00, 0.0,19.2
2023/05/06 03:10:00, 0.2,19.4
2023/05/06 03:20:00, 8.3,19.3
2023/05/06 03:30:00, 8.4,19.3
2023/05/06 03:40:00, 0.0,19.3
2023/05/06 03:50:00,29.3,19.4
2023/05/06 04:00:00,28.6,19.3
2023/05/06 04:10:00,17.9,19.2
2023/05/06 04:20:00,55.9,19.4
2023/05/06 04:30:00, 0.0,19.6
2023/05/06 04:40:00,---,19.6
2023/05/06 04:50:00, 6.4,19.8
2023/05/06 05:00:00,35.4,19.5
2023/05/06 05:10:00, 0.0,19.3
2023/05/06 05:20:00, 0.0,19.4
2023/05/06 05:30:00,13.2,19.7
2023/05/06 05:40:00,29.2,19.5
2023/05/06 05:50:00,10.6,19.8
2023/05/06 06:00:00,17.4,19.6
2023/05/06 06:10:00, 0.0,19.8
2023/05/06 06:20:00,---,20.0
2023/05/06 06:30:00,16.2,19.7
2023/05/06 06:40:00, 7.7,19.7
2023/05/06 06:50:00,34.1,19.4
2023/05/06 07:00:00,---,19.4
2023/05/06 07:10:00,---,19.6
2023/05/06 07:20:00,19.9,19.9
2023/05/06 07:30:00,---,20.4
2023/05/06 07:40:00,21.5,20.3
2023/05/06 07:50:00, 0.0,20.3
2023/05/06 08:00:00, 0.0,20.2
2023/05/06 08:10:00,---,20.0
2023/05/06 08:20:00, 0.0,19.9
2023/05/06 08:30:00, 0.7,20.4
2023/05/06 08:40:00,---,20.4
2023/05/06 08:50:00, 0.0,20.2
2023/05/06 09:00:00, 7.6,20.6
2023/05/06 09:10:00,13.9,20.6
2023/05/06 09:20:00, 0.0,20.6
2023/05/06 09:30:00, 0.0,21.1
2023/05/06 09:40:00,21.1,22.6
2023/05/06 09:50:00,---,22.6
2023/05/06 10:00:00, 0.0,22.6
2023/05/06 10:10:00,19.9,23.3
2023/05/06 10:20:00,29.3,22.4
2023/05/06 10:30:00, 2.8,22.8
2023/05/06 10:40:00, 0.0,22.2
2023/05/06 10:50:00,---,22.3
2023/05/06 11:00:00, 8.4,22.1
2023/05/06 11:10:00, 1.9,22.7
2023/05/06 11:20:00, 0.0,23.0
2023/05/06 11:30:00, 8.3,23.3
2023/05/06 11:40:00, 0.0,23.1
2023/05/06 11:50:00, 0.1,24.0
2023/05/06 12:00:00, 4.9,24.0
2023/05/06 12:10:00,---,24.2
2023/05/06 12:20:00, 3.7,24.6
2023/05/06 12:30:00,13.4,24.4
2023/05/06 12:40:00,48.2,24.6
2023/05/06 12:50:00,---,25.1
2023/05/06 13:00:00, 0.0,24.9
2023/05/06 13:10:00,---,24.6
2023/05/06 13:20:00,15.0,24.2
2023/05/06 13:30:00, 2.0,24.0
2023/05/06 13:40:00,31.0,23.5
2023/05/06 13:50:00,49.3,23.2
2023/05/06 14:00:00,49.5,23.2
2023/05/06 14:10:00,---,22.8
2023/05/06 14:20:00,49.8,22.4
2023/05/06 14:30:00,54.3,22.3
2023/05/06 14:40:00,23.5,22.1
2023/05/06 14:50:00,40.0,20.8
2023/05/06 15:00:00,---,20.1
2023/05/06 15:10:00,27.1,19.7
2023/05/06 15:20:00,60.9,19.7
2023/05/06 15:30:00,53.3,19.3
2023/05/06 15:40:00,24.3,19.5
2023/05/06 15:50:00,---,19.8
2023/05/06 16:00:00,62.8,19.7
2023/05/06 16:10:00,65.4,20.2
2023/05/06 16:20:00,---,19.9
2023/05/06 16:30:00,57.0,19.1
2023/05/06 16:40:00,---,19.1
2023/05/06 16:50:00,---,18.4
2023/05/06 17:00:00,35.4,18.3
2023/05/06 17:10:00,---,18.7
2023/05/06 17:20:00,64.6,18.6
2023/05/06 17:30:00,64.1,18.7
2023/05/06 17:40:00,61.8,18.7
2023/05/06 17:50:00,63.4,18.5
2023/05/06 18:00:00,63.7,18.9
2023/05/06 18:10:00,62.7,18.9
2023/05/06 18:20:00,---,19.0
2023/05/06 18:30:00,60.7,19.2
2023/05/06 18:40:00,60.4,18.6
2023/05/06 18:50:00,86.7,18.9
2023/05/06 19:00:00,59.9,18.5
2023/05/06 19:10:00,56.4,18.5
2023/05/06 19:20:00,57.9,18.4
2023/05/06 19:30:00,55.1,18.7
2023/05/06 19:40:00,58.8,18.7
2023/05/06 19:50:00,61.2,18.9
2023/05/06 20:00:00,62.0,18.8
2023/05/06 20:10:00,61.6,19.0
2023/05/06 20:20:00,52.4,19.1
2023/05/06 20:30:00,60.3,18.8
2023/05/06 20:40:00,61.5,19.1
2023/05/06 20:50:00,64.5,19.1
2023/05/06 21:00:00,64.7,19.0
2023/05/06 21:10:00,64.7,18.7
2023/05/06 21:20:00,64.8,18.6
2023/05/06 21:30:00,64.8,18.7
2023/05/06 21:40:00,64.2,17.9
2023/05/06 21:50:00,63.5,17.5
2023/05/06 22:00:00,63.9,17.1
2023/05/06 22:10:00,63.2,16.9
2023/05/06 22:20:00,59.9,17.1
2023/05/06 22:30:00,52.4,16.8
2023/05/06 22:40:00,49.5,16.7
2023/05/06 22:50:00,54.4,16.4
2023/05/06 23:00:00,54.6,16.3
2023/05/06 23:10:00,58.1,16.4
2023/05/06 23:20:00,59.8,15.9
2023/05/06 23:30:00,59.4,16.0
2023/05/06 23:40:00,56.6,16.2
2023/05/06 23:50:00,58.4,15.6
